User: anonymous   Login
Location: Stockholm
(59.3293°N, 18.0686°E)
Time: 00:11:38
(UTC+02:00)
Language:

Hubble Space Telescope - Orbit

View from above orbital plane
View from above orbital plane
View from above satellite
View from above satellite

Ground track
Ground track

The orbit data is extracted from the following two-line orbital elements,

1 20580U 90037B   19111.55869352  .00000468  00000-0  17560-4 0  9991
2 20580  28.4687 236.3353 0002571 216.1947 235.0196 15.09210569392099
Epoch (UTC): 21 April 2019 13:24:31
Eccentricity: 0.0002571
inclination: 28.4687°
perigee height: 537 km
apogee height: 540 km
right ascension of ascending node: 236.3353°
argument of perigee: 216.1947°
revolutions per day: 15.09210569
mean anomaly at epoch: 235.0196°
orbit number at epoch: 39209

The dashed part of the orbit path shows where the satellite is in the earth's shadow,  

DLR